Wetbulb
33.89 34.18 35.65 38.25 39.52 38.75 37.69 37.71 39.29 39.82 39.24 37.30 36.57 36.18 36.08 36.26 36.57 36.83 37.05 36.81 37.20 37.56 37.82 37.83 38.25 38.02 37.44 36.66 36.54 36.05 35.55 35.24 35.39 37.05 38.87 39.67 38.46 37.76 37.35 36.74 36.12 35.86 35.84 35.83 35.60 35.31 34.77 34.12 34.66 35.44 36.15 36.63 36.12 35.29 34.65 34.79 34.49 34.15 33.89 33.78 33.99 33.74 33.28 32.88 32.62 32.46 32.34 32.15 32.97
33.79 34.33 35.64 38.03 38.42 37.53 36.79 37.33 37.69 37.47 36.80 35.57 35.62 35.52 35.47 35.93 36.27 36.52 36.55 36.32 36.83 36.97 37.07 37.51 37.34 36.73 36.15 36.00 36.00 35.49 34.80 34.57 34.47 35.18 35.91 36.14 35.35 34.91 34.69 34.59 34.12 34.36 34.83 34.40 34.02 34.25 34.43 33.72 33.99 34.84 35.73 36.07 35.64 34.93 34.43 34.65 34.07 33.59 33.07 32.60 32.91 33.02 32.89 32.49 32.55 32.36 32.08 32.13 32.08
33.63 33.73 33.90 34.07 33.70 34.12 34.85 35.54 35.30 34.51 33.87 34.00 34.28 34.63 35.01 35.47 35.97 36.25 36.41 36.34 35.76 35.55 35.86 36.77 36.46 36.14 35.93 35.58 34.88 34.20 33.73 33.76 33.91 34.11 34.25 34.31 33.90 33.53 33.34 33.54 33.19 33.95 34.83 34.83 33.99 34.16 34.36 33.72 34.61 36.09 37.05 36.67 35.41 34.89 34.44 33.77 34.02 33.55 32.81 32.09 32.51 32.85 33.43 34.39 33.34 32.67 32.51 33.07 32.01
33.66 33.35 33.24 33.30 33.15 33.12 33.41 34.50 34.03 33.75 33.82 34.46 33.79 33.80 34.31 34.75 35.26 35.51 35.42 35.00 34.75 35.03 35.35 35.32 35.82 36.09 36.15 35.84 34.85 33.75 33.46 35.05 35.73 35.22 34.46 34.33 34.16 33.75 33.43 33.19 33.43 33.53 33.52 33.42 33.28 33.23 33.09 32.82 34.23 35.50 35.88 34.88 33.94 33.68 33.82 33.98 33.56 33.27 33.02 32.54 32.81 33.06 33.67 35.06 34.08 33.87 34.04 34.16 32.62
33.81 33.45 33.19 33.08 32.87 32.72 32.59 32.49 32.64 32.95 33.29 33.63 33.80 34.01 34.29 34.56 34.81 34.65 34.65 35.27 35.40 35.36 35.08 34.51 35.70 36.37 36.40 35.58 34.24 33.21 32.98 33.67 36.92 36.17 34.26 33.99 33.91 33.68 33.31 33.01 33.20 33.19 33.04 32.89 32.67 32.59 32.41 31.85 33.19 33.84 33.73 32.98 33.33 33.40 33.08 32.54 32.02 31.95 32.32 33.16 33.42 33.73 34.11 34.39 34.41 34.15 34.19 34.86 33.71
33.57 33.30 32.95 32.73 32.47 32.37 32.23 32.15 32.19 32.39 32.65 32.99 33.30 33.84 34.55 35.72 35.52 35.17 34.99 35.34 35.07 34.53 34.50 36.21 36.92 37.32 36.60 34.23 33.31 32.91 32.69 32.40 32.90 32.76 32.56 32.83 32.94 32.91 32.71 32.54 32.17 32.04 31.97 32.02 31.72 31.64 31.52 31.07 32.54 32.94 32.71 32.48 32.09 31.97 31.76 31.22 31.24 31.13 31.42 32.43 33.41 33.58 33.44 33.32 33.87 33.96 33.97 34.22 33.02
33.26 33.37 33.28 33.07 32.58 32.48 32.49 32.21 32.07 31.99 32.13 32.71 33.12 33.60 34.16 34.88 34.75 34.21 33.83 33.81 34.14 34.62 35.76 37.94 36.41 35.17 34.01 32.74 32.67 32.68 32.68 32.61 32.08 31.78 31.72 32.06 32.06 32.08 32.23 32.17 31.64 31.41 31.35 31.49 31.17 30.95 30.66 30.25 31.71 32.98 34.21 35.79 35.17 33.76 32.07 30.99 30.99 31.05 31.44 32.43 33.90 34.01 33.28 32.24 32.82 33.11 32.91 32.17 31.81
33.26 33.62 33.75 33.52 33.00 32.75 32.66 32.39 32.00 32.20 32.80 33.83 33.80 33.49 33.27 33.77 33.85 33.59 33.36 33.52 34.30 35.12 35.87 36.08 33.65 32.32 31.81 31.64 31.93 32.11 32.12 32.06 32.13 31.91 31.64 31.65 31.56 31.53 31.49 31.40 31.33 31.35 31.28 31.25 31.03 30.74 30.30 30.09 31.38 31.87 32.29 33.14 34.22 33.91 32.76 31.47 30.82 30.71 31.10 31.97 33.46 33.54 33.18 33.19 32.50 32.35 32.32 31.85 31.53
33.34 33.47 33.43 33.32 33.01 32.96 32.80 32.17 31.80 32.25 32.99 33.45 33.40 33.14 33.33 34.87 34.27 33.51 33.21 34.07 35.30 35.48 34.86 33.69 32.45 31.78 31.37 31.24 31.47 31.59 31.68 31.76 31.94 31.83 31.67 31.52 31.83 31.98 31.96 31.81 31.75 31.53 31.36 31.12 30.90 30.45 30.03 30.19 31.11 31.54 32.09 33.35 33.87 33.59 32.64 31.35 30.66 30.39 30.67 31.69 32.50 32.50 32.34 32.59 31.97 31.71 31.70 31.85 31.63
33.13 33.10 33.03 33.29 32.96 33.15 32.97 31.91 32.03 32.53 33.00 32.99 33.09 33.03 34.03 37.01 35.22 33.94 33.63 34.79 35.22 34.42 33.21 32.52 31.83 31.53 31.53 31.66 31.66 31.71 31.68 31.70 31.76 31.77 31.82 32.29 33.10 32.83 32.21 31.77 31.40 31.17 30.94 30.72 30.62 30.24 29.86 30.12 30.48 30.79 31.03 31.23 31.41 31.38 31.09 30.42 30.10 30.03 30.70 32.54 32.60 32.02 31.52 31.67 31.60 31.39 31.51 32.39 32.15
32.92 33.03 33.06 33.23 32.88 33.03 32.96 31.99 32.93 33.41 33.54 33.15 33.02 32.93 33.28 34.56 33.58 33.72 34.23 34.30 33.47 33.02 32.63 32.27 31.67 31.59 31.81 32.04 31.85 32.13 32.30 31.89 31.76 31.71 31.80 31.92 32.73 32.31 31.46 30.87 30.51 30.39 30.36 30.26 30.20 30.10 30.15 30.37 30.41 30.51 30.73 30.88 30.87 30.80 30.51 29.84 29.55 29.66 30.29 31.40 31.35 31.19 31.15 31.33 31.56 31.63 31.80 32.42 32.19
32.74 32.91 33.04 33.03 32.58 32.33 32.26 32.32 33.02 33.42 33.45 33.28 33.09 32.84 32.59 32.37 32.41 33.43 33.95 32.63 32.68 32.84 32.85 32.29 31.90 31.76 31.83 32.07 31.96 32.61 33.00 31.99 31.68 31.57 31.60 31.41 31.03 30.68 30.32 30.13 30.10 29.94 29.90 29.76 29.80 30.06 30.31 30.36 30.24 30.31 30.42 30.46 31.07 31.46 31.27 30.19 29.79 29.90 30.12 30.31 30.53 30.79 31.21 31.63 31.81 32.35 32.80 32.81 32.65
32.74 32.95 33.05 32.94 32.53 32.33 32.31 32.66 33.06 33.21 33.24 33.19 32.91 32.79 32.72 32.59 33.04 33.44 33.23 31.82 32.61 32.78 32.72 32.45 32.68 32.47 32.08 32.00 31.87 31.75 31.57 31.44 31.14 31.04 30.98 30.73 30.42 30.10 29.95 29.91 29.91 29.79 29.70 29.63 29.72 29.95 30.13 30.10 29.95 30.09 30.35 30.51 31.50 31.89 31.60 30.52 30.28 30.31 30.52 30.70 30.86 31.18 31.59 31.90 32.25 32.68 32.92 32.75 33.09
32.60 32.87 32.98 32.81 32.57 32.54 32.71 32.86 33.44 33.53 33.28 32.93 32.80 32.61 32.43 32.22 33.07 33.45 33.15 31.84 32.04 32.20 32.18 32.15 32.93 33.30 33.13 32.35 31.83 31.43 31.18 30.88 30.55 30.19 30.11 30.26 30.09 29.85 29.76 30.00 29.79 29.73 29.82 29.99 30.09 30.02 29.94 30.09 29.95 30.09 30.26 30.49 31.00 31.29 31.16 30.63 30.65 30.75 30.92 31.10 31.27 31.59 32.00 32.49 32.78 32.97 32.99 32.84 33.47
32.63 32.80 32.86 32.60 32.53 32.65 32.77 32.80 33.48 33.58 33.33 33.01 32.83 32.48 32.15 32.20 32.91 33.38 33.21 32.06 31.93 31.79 31.78 31.59 32.12 32.73 33.00 32.41 31.62 30.95 30.49 30.04 29.81 29.64 29.70 30.09 29.95 29.69 29.67 29.91 29.80 29.91 30.08 30.27 30.19 30.06 29.91 29.80 30.16 30.32 30.42 30.62 30.94 31.09 31.20 31.03 31.06 31.24 31.43 31.61 31.83 32.18 32.58 32.91 33.15 33.32 33.43 33.34 33.66
32.74 32.76 32.71 32.39 32.42 32.56 32.71 32.72 33.20 33.27 33.11 33.02 32.70 32.31 32.11 32.05 32.29 32.91 33.28 33.06 32.46 31.96 31.58 31.43 31.56 31.37 31.33 32.29 32.20 31.39 30.35 29.79 29.60 29.51 29.49 29.72 29.84 29.83 29.89 29.91 30.27 30.40 30.35 30.23 30.25 30.33 30.36 30.33 30.62 30.64 30.54 30.83 31.08 31.26 31.38 31.40 31.48 31.52 31.70 31.89 32.21 32.49 32.82 33.30 33.61 33.74 33.83 34.01 34.26
32.56 32.53 32.39 32.16 32.23 32.24 32.38 32.44 32.73 32.83 32.75 32.68 32.36 32.22 32.15 32.01 31.97 32.78 33.79 34.36 33.02 32.05 31.57 31.45 31.37 31.08 31.11 31.80 32.23 31.64 30.79 30.11 29.93 29.86 30.01 30.24 30.32 30.37 30.38 30.34 30.86 30.88 30.60 30.37 30.52 30.67 30.84 30.90 31.13 30.95 30.85 30.92 31.22 31.46 31.63 31.73 31.90 32.07 32.21 32.37 32.61 32.85 33.22 34.10 34.42 34.38 34.30 34.38 34.81
32.32 32.23 32.13 32.04 32.10 32.00 32.08 32.36 32.47 32.44 32.33 32.21 32.14 32.11 31.97 31.92 31.74 32.19 32.92 33.57 32.66 31.95 31.61 31.67 31.25 30.89 30.70 30.63 30.60 31.08 31.28 30.73 30.51 30.51 30.59 30.67 30.48 30.39 30.40 30.49 30.98 30.93 30.68 30.44 30.49 30.75 31.10 31.32 31.29 31.45 31.48 31.56 31.73 32.02 32.18 32.30 32.46 32.65 32.75 32.95 33.15 33.35 33.63 34.21 34.39 34.50 34.60 34.52 35.01
31.94 31.95 31.95 31.93 31.99 31.86 32.10 32.90 32.69 32.39 32.09 31.87 31.95 31.90 31.81 31.59 31.28 31.50 31.77 31.82 32.65 32.36 31.68 31.40 31.19 30.83 30.53 30.51 30.09 31.01 31.85 31.59 31.03 30.73 30.73 30.60 30.32 30.21 30.26 30.51 30.83 30.78 30.61 30.47 30.66 30.83 31.18 31.45 31.64 31.78 31.92 32.18 32.26 32.46 32.67 32.80 33.04 33.15 33.29 33.44 33.58 33.82 34.05 34.25 34.44 34.72 34.90 34.92 35.44
31.59 31.68 31.83 31.92 31.89 31.68 31.61 32.18 32.12 31.81 31.59 31.61 31.13 31.28 31.61 31.66 31.18 31.10 31.37 31.82 32.47 31.98 31.12 30.50 30.88 30.86 30.74 30.53 30.30 30.50 30.98 31.41 30.88 30.65 30.67 30.61 30.41 30.40 30.59 30.77 30.89 30.87 30.76 30.50 30.80 31.01 31.23 31.51 31.77 31.90 32.10 32.31 32.56 32.68 32.82 33.07 33.26 33.44 33.63 33.93 34.23 34.38 34.60 34.85 35.03 35.21 35.30 35.38 35.80
31.53 31.59 31.64 31.69 31.38 31.19 31.18 31.40 31.31 31.03 30.75 30.74 30.57 30.89 31.27 31.45 31.09 31.06 31.46 32.23 32.04 31.35 30.58 30.15 30.49 30.76 30.80 30.74 30.66 30.41 30.60 31.58 30.99 30.77 30.79 30.89 31.01 31.23 31.43 31.67 31.27 31.15 31.12 30.82 31.13 31.18 31.32 31.63 31.82 32.11 32.37 32.61 32.92 33.05 33.23 33.51 33.72 33.84 34.03 34.56 34.93 35.11 35.29 35.48 35.65 35.80 36.02 36.25 36.85
31.43 31.35 31.25 31.19 30.79 30.84 31.06 31.22 30.68 30.27 30.04 30.36 30.48 30.71 30.90 31.04 31.31 31.43 31.55 31.72 31.57 31.17 30.81 30.56 30.66 30.78 30.82 30.86 30.82 30.76 30.87 31.47 30.89 30.75 30.89 30.93 31.39 31.83 32.04 31.96 30.87 30.53 30.60 30.50 30.90 31.23 31.47 31.93 32.18 32.43 32.71 33.06 33.19 33.49 33.89 34.32 34.49 34.62 34.83 35.14 35.50 35.83 36.12 36.49 36.76 37.05 37.38 37.69 38.00
31.01 30.69 30.53 30.53 30.37 31.27 32.10 31.62 30.35 29.82 29.92 30.38 30.70 30.80 30.95 31.31 31.46 31.29 31.07 30.97 31.46 31.29 31.05 30.97 31.11 31.07 30.93 30.86 30.67 30.45 30.40 30.55 30.60 30.88 30.97 30.66 30.79 30.99 31.09 30.91 29.99 29.79 30.21 31.05 31.47 31.78 32.12 32.63 33.37 33.86 34.39 35.11 35.62 36.07 36.48 37.05 37.53 37.67 37.63 37.48 37.56 37.69 37.96 38.34 38.81 39.18 39.50 39.67 39.91
30.31 30.02 30.04 30.58 29.92 29.81 29.82 29.77 29.64 29.88 30.30 30.93 31.16 31.17 31.30 31.53 31.50 31.24 30.94 30.72 30.90 30.77 30.77 31.42 31.56 31.30 31.01 30.92 30.49 30.10 29.87 29.87 30.60 30.93 31.04 30.95 30.90 30.69 30.52 30.49 30.28 30.50 31.12 32.25 33.83 34.87 35.71 36.18 36.63 37.28 38.00 38.77 39.25 39.63 39.94 40.28 40.34 40.45 40.39 40.41 40.39 40.24 40.20 40.36 40.88 41.24 41.54 41.80 41.99
29.44 29.43 29.76 29.81 29.43 29.32 29.42 29.56 29.92 30.33 30.75 31.19 31.02 30.98 31.12 31.35 31.36 31.29 31.21 31.10 31.12 31.05 31.01 31.11 31.07 31.28 31.55 31.73 31.35 30.79 30.20 29.55 30.22 30.60 30.86 31.06 31.10 30.87 30.72 31.12 31.47 31.88 32.80 34.47 38.17 40.39 41.42 41.52 41.07 40.78 40.58 40.69 40.85 40.94 40.91 40.82 40.81 41.02 41.28 41.41 41.48 41.56 41.56 41.70 41.93 42.19 42.58 42.80 42.88
28.75 28.84 29.25 29.44 29.17 29.19 29.47 29.66 29.85 30.16 30.39 30.57 30.57 30.79 30.95 30.92 31.21 30.95 30.72 30.97 31.14 31.11 31.10 31.01 30.96 32.35 33.55 33.00 32.29 31.60 31.04 30.76 30.69 30.58 30.54 30.78 30.78 30.71 30.96 31.54 32.18 32.55 33.75 36.68 39.88 41.87 43.02 43.79 43.83 43.16 42.21 41.54 41.31 41.19 41.04 41.03 41.44 41.79 42.09 42.16 42.15 42.19 42.13 42.09 42.19 42.50 42.82 43.14 43.28
28.56 29.07 29.45 29.40 29.01 29.15 29.47 29.75 29.83 30.01 30.24 30.60 30.74 30.97 31.16 31.04 31.24 30.87 30.56 30.87 31.00 30.97 30.96 31.00 30.92 33.19 34.83 33.10 31.73 31.14 31.18 31.65 31.07 30.44 30.10 30.11 30.30 30.44 30.78 31.50 32.16 32.90 34.62 38.30 41.01 42.63 43.66 44.34 44.81 44.64 43.87 42.38 42.13 42.12 42.17 42.29 42.61 42.78 42.87 42.77 42.67 42.54 42.31 42.13 42.23 42.46 42.78 43.06 42.96
28.94 29.35 29.33 28.87 28.97 29.37 29.70 29.73 29.82 30.22 30.67 30.94 30.85 30.78 30.79 30.75 30.39 30.45 30.64 30.83 30.86 31.04 31.33 31.43 32.29 33.04 33.22 32.44 31.51 31.04 30.95 30.96 30.81 30.69 30.52 30.39 30.58 30.57 30.81 31.50 31.97 33.71 36.45 40.22 41.93 43.05 43.99 44.73 45.28 45.53 45.27 44.26 43.30 42.94 42.78 42.64 42.76 42.85 42.90 42.85 42.85 42.72 42.59 42.54 42.59 42.73 42.68 42.50 42.23
28.95 29.01 28.92 28.74 29.11 29.60 29.95 29.99 30.40 30.71 30.89 30.71 30.59 30.72 30.81 30.43 30.39 30.46 30.56 30.73 30.74 30.99 31.45 32.39 33.57 33.32 32.45 32.13 31.80 31.29 30.80 30.29 30.66 30.77 30.72 30.48 30.50 30.72 31.17 31.79 32.36 34.56 37.70 41.18 42.21 43.17 44.08 44.81 45.45 45.96 46.17 45.87 44.44 43.64 43.17 42.90 42.67 42.62 42.67 42.67 42.81 42.81 42.81 42.77 42.90 42.95 42.95 42.63 42.05
28.58 28.58 28.63 28.74 29.18 29.81 30.34 30.56 30.75 30.69 30.60 30.94 30.36 30.19 30.19 30.42 30.35 30.42 30.57 30.68 30.55 31.19 32.20 33.06 32.68 32.16 31.68 31.37 31.12 30.96 30.93 30.87 31.00 30.82 30.56 30.25 30.66 31.19 32.03 33.20 32.96 34.54 37.38 40.94 42.24 43.25 44.25 45.03 45.58 46.09 46.33 46.37 45.33 44.29 43.31 42.99 42.81 42.68 42.64 42.59 42.64 42.65 42.61 42.56 42.69 42.78 42.68 42.27 41.47
28.39 28.35 28.40 28.76 29.30 30.02 30.60 30.78 30.59 30.28 30.15 30.52 29.85 29.77 30.00 30.15 30.08 29.98 29.91 29.91 30.73 32.29 33.33 32.50 30.96 30.40 30.33 30.35 30.23 30.28 30.49 30.75 30.79 30.74 30.62 30.46 31.96 32.55 32.55 32.33 32.26 34.16 37.21 40.88 42.37 43.51 44.47 45.24 45.71 46.08 46.42 46.67 45.72 44.38 43.19 42.82 42.33 42.02 41.84 41.99 42.05 42.09 42.05 42.12 42.16 42.11 41.84 41.43 40.90
28.35 28.35 28.53 28.80 29.52 30.19 30.64 30.64 30.45 30.17 29.77 29.29 29.35 29.55 29.82 29.76 29.68 29.43 29.49 30.09 31.12 31.53 31.36 30.54 30.01 30.02 30.25 30.36 30.28 30.29 30.34 30.50 30.69 31.09 31.61 31.96 31.72 31.60 31.67 32.37 32.34 34.38 37.53 41.23 42.72 43.86 44.81 45.41 45.83 46.21 46.42 46.72 45.85 44.30 42.80 41.72 40.81 40.50 40.73 41.20 41.66 41.83 41.81 41.84 41.75 41.58 41.35 41.12 40.84
28.40 28.49 28.57 28.75 29.65 30.32 30.59 30.49 30.25 29.85 29.50 29.21 29.26 29.42 29.70 29.76 29.72 29.72 30.04 30.87 31.34 30.85 30.17 30.06 30.07 30.15 30.14 30.22 30.15 30.15 30.28 30.80 31.32 32.19 32.84 32.82 32.00 31.59 31.76 32.76 32.85 35.29 38.71 41.80 43.20 44.20 44.98 45.54 45.88 46.13 46.42 46.67 45.42 43.64 41.75 40.43 39.96 40.19 40.79 41.33 41.64 41.68 41.59 41.50 41.54 41.58 41.48 41.38 41.28
28.72 28.58 28.66 29.01 29.89 30.33 30.47 30.39 30.03 29.63 29.24 29.16 29.32 29.55 29.61 29.40 29.46 29.69 30.46 32.14 32.27 31.61 30.79 30.24 29.75 29.55 29.61 29.57 29.60 29.84 30.47 32.05 31.97 31.50 31.23 31.19 31.15 31.51 32.08 32.63 33.12 36.20 39.87 42.27 43.54 44.42 45.03 45.41 45.66 45.87 46.03 46.20 44.46 42.41 40.63 39.89 40.32 40.73 41.10 41.47 41.37 41.37 41.46 41.59 41.89 42.06 41.97 41.65 41.46
28.76 28.65 28.87 29.53 29.84 30.15 30.24 30.11 29.76 29.37 29.07 29.13 29.42 29.70 29.53 28.79 28.79 29.28 30.71 33.50 33.76 32.32 30.67 30.03 29.51 29.38 29.47 29.70 29.36 29.82 30.70 31.57 31.19 31.08 31.14 31.46 31.64 32.04 32.43 32.70 33.28 36.52 40.41 42.78 43.76 44.42 44.81 45.11 45.32 45.43 45.52 45.15 43.41 41.87 40.79 40.60 41.13 41.44 41.41 41.23 41.33 41.60 41.97 42.31 42.21 42.03 41.71 41.35 41.03
28.66 28.51 28.72 29.51 29.73 29.91 29.88 29.75 29.39 29.10 28.99 29.04 29.37 29.52 29.31 28.96 28.73 29.18 30.79 34.16 33.39 31.69 30.20 29.95 29.70 29.43 29.35 29.58 29.78 30.69 31.40 30.92 30.82 31.12 31.68 32.38 32.41 32.18 32.04 32.31 33.06 36.27 40.16 42.91 43.76 44.17 44.51 44.85 45.06 45.22 44.97 44.00 42.57 41.80 41.55 41.66 41.79 41.66 41.41 41.10 41.33 41.52 41.74 41.73 41.37 41.15 41.01 40.74 40.51
28.65 28.50 28.60 29.08 29.58 29.76 29.64 29.30 28.90 28.79 28.76 28.99 28.84 28.81 28.82 28.82 28.90 29.40 30.71 33.32 31.35 30.35 29.93 29.88 29.67 29.54 29.40 29.45 29.96 30.64 31.13 31.15 31.28 31.51 32.13 33.16 32.91 32.46 32.26 32.68 33.21 35.91 39.50 42.57 43.46 43.91 44.30 44.60 44.81 44.89 44.43 43.07 42.14 41.78 41.71 41.69 41.56 41.35 41.14 41.01 41.01 41.10 41.06 40.70 40.38 40.21 40.16 40.12 40.36
28.69 28.52 28.49 28.70 29.37 29.57 29.41 28.89 28.50 28.38 28.53 28.72 28.48 28.37 28.32 28.36 28.84 29.68 31.21 33.71 30.66 29.54 29.44 29.45 29.26 29.32 29.52 29.94 30.69 31.18 31.48 31.66 32.17 32.30 32.29 32.46 32.54 32.80 33.29 34.03 34.53 36.31 38.90 41.93 43.08 43.73 44.08 44.43 44.72 44.85 44.30 42.90 42.07 41.59 41.40 41.25 41.11 40.95 40.95 40.95 40.81 40.49 40.10 39.92 39.74 39.56 39.57 39.68 41.39
28.92 28.77 28.52 28.32 28.79 29.03 28.87 28.44 28.18 28.16 28.27 28.36 28.43 28.30 28.29 28.31 29.17 30.63 32.18 33.13 29.88 28.64 28.48 28.91 29.05 29.38 30.19 31.53 31.90 31.89 31.66 31.70 32.17 32.61 32.71 32.24 32.93 34.79 36.37 36.44 35.91 36.70 38.53 41.24 42.51 43.34 43.87 44.30 44.68 44.98 44.68 43.35 42.12 41.47 41.22 40.98 40.80 40.66 40.71 40.75 40.39 39.81 39.19 39.15 39.19 39.06 39.12 39.46 42.20
28.77 28.53 28.25 27.89 28.26 28.41 28.42 28.08 28.18 28.11 28.08 28.05 28.14 28.31 28.72 29.43 30.93 32.10 32.51 31.63 29.14 28.24 28.29 28.87 29.14 29.75 31.04 33.11 32.54 31.67 31.21 31.34 31.57 32.20 32.92 33.62 34.85 37.29 38.94 37.55 36.03 36.07 37.61 40.40 42.07 43.04 43.69 44.21 44.60 44.89 44.60 42.95 41.92 41.47 41.21 40.93 40.61 40.35 40.26 40.35 39.80 39.16 38.54 38.55 38.67 38.62 38.44 38.43 40.31
28.44 28.52 28.65 28.52 28.22 28.01 27.88 27.81 28.23 28.16 27.99 27.86 27.69 28.75 30.37 32.10 31.62 30.90 30.17 29.69 28.50 28.39 28.91 29.50 29.67 30.03 30.92 32.67 32.17 31.33 30.77 31.00 31.68 32.33 33.32 34.93 35.76 37.38 38.31 36.65 35.47 35.27 36.22 38.72 41.32 42.86 43.65 44.09 44.43 44.72 44.38 43.13 42.14 41.59 41.29 40.96 40.38 39.85 39.67 39.63 39.20 38.61 38.02 37.95 38.02 37.99 37.72 37.49 37.67
MSLP
1022.64 1022.64 1022.64 1022.56 1022.48 1022.48 1022.48 1022.36 1022.32 1022.24 1022.24 1022.28 1022.20 1022.20 1022.12 1022.04 1021.92 1021.76 1021.60 1021.52 1021.44 1021.36 1021.20 1021.08 1020.92 1020.76 1020.64 1020.52 1020.48 1020.44 1020.40 1020.32 1020.28 1020.24 1020.24 1020.24 1020.20 1020.16 1020.12 1020.08 1020.08 1020.08 1020.08 1020.08 1020.12 1020.12 1020.12 1020.16 1020.16 1020.12 1020.12 1020.12 1020.12 1020.12 1020.08 1020.04 1020.04 1020.08 1020.08 1020.08 1020.04 1020.00 1020.00 1020.00 1019.96 1019.92 1019.92 1019.88 1019.80
1022.64 1022.64 1022.60 1022.52 1022.48 1022.44 1022.40 1022.36 1022.28 1022.20 1022.20 1022.20 1022.20 1022.20 1022.16 1022.08 1021.96 1021.80 1021.64 1021.56 1021.44 1021.36 1021.24 1021.08 1020.92 1020.80 1020.72 1020.60 1020.52 1020.52 1020.48 1020.40 1020.32 1020.24 1020.20 1020.20 1020.20 1020.20 1020.12 1020.08 1020.08 1020.08 1020.08 1020.08 1020.08 1020.08 1020.08 1020.08 1020.12 1020.12 1020.12 1020.08 1020.08 1020.08 1020.04 1019.92 1019.92 1019.92 1019.96 1019.96 1019.88 1019.80 1019.80 1019.84 1019.80 1019.72 1019.68 1019.64 1019.56
1022.64 1022.64 1022.60 1022.56 1022.56 1022.56 1022.52 1022.48 1022.40 1022.36 1022.32 1022.24 1022.20 1022.20 1022.16 1022.08 1021.96 1021.84 1021.68 1021.56 1021.48 1021.36 1021.28 1021.12 1020.96 1020.88 1020.76 1020.64 1020.56 1020.52 1020.52 1020.48 1020.36 1020.28 1020.20 1020.20 1020.16 1020.16 1020.12 1020.12 1020.08 1020.08 1020.08 1020.08 1020.08 1020.04 1020.04 1020.08 1020.08 1020.08 1020.08 1020.04 1020.00 1019.96 1019.92 1019.80 1019.80 1019.80 1019.80 1019.80 1019.68 1019.64 1019.60 1019.56 1019.52 1019.44 1019.40 1019.36 1019.36
1022.72 1022.76 1022.72 1022.68 1022.68 1022.72 1022.68 1022.64 1022.52 1022.48 1022.36 1022.28 1022.20 1022.16 1022.08 1022.04 1021.92 1021.80 1021.68 1021.56 1021.48 1021.36 1021.32 1021.20 1021.04 1020.88 1020.80 1020.72 1020.64 1020.60 1020.52 1020.48 1020.40 1020.36 1020.28 1020.24 1020.20 1020.16 1020.16 1020.12 1020.08 1020.08 1020.04 1020.04 1020.04 1020.04 1020.08 1020.08 1020.08 1020.04 1020.00 1019.96 1019.92 1019.88 1019.80 1019.64 1019.64 1019.64 1019.56 1019.48 1019.44 1019.40 1019.36 1019.24 1019.20 1019.12 1019.08 1019.08 1019.04
1022.80 1022.80 1022.84 1022.80 1022.80 1022.76 1022.68 1022.64 1022.60 1022.48 1022.40 1022.32 1022.20 1022.12 1022.04 1021.96 1021.88 1021.80 1021.72 1021.60 1021.48 1021.36 1021.32 1021.20 1021.08 1020.96 1020.84 1020.76 1020.68 1020.64 1020.56 1020.52 1020.44 1020.36 1020.36 1020.32 1020.20 1020.20 1020.12 1020.12 1020.12 1020.08 1020.08 1020.08 1020.08 1020.08 1020.08 1020.08 1020.04 1020.00 1019.92 1019.88 1019.80 1019.64 1019.56 1019.52 1019.52 1019.48 1019.36 1019.24 1019.20 1019.16 1019.08 1019.00 1018.92 1018.92 1018.88 1018.80 1018.76
1022.92 1022.88 1022.80 1022.80 1022.76 1022.68 1022.64 1022.60 1022.52 1022.48 1022.40 1022.32 1022.24 1022.16 1022.04 1021.92 1021.84 1021.80 1021.72 1021.68 1021.56 1021.44 1021.28 1021.20 1021.08 1020.96 1020.88 1020.80 1020.72 1020.68 1020.64 1020.56 1020.48 1020.48 1020.40 1020.36 1020.32 1020.24 1020.20 1020.20 1020.16 1020.12 1020.12 1020.12 1020.08 1020.08 1020.08 1020.08 1020.00 1019.92 1019.80 1019.76 1019.64 1019.48 1019.36 1019.36 1019.36 1019.32 1019.24 1019.16 1019.04 1018.96 1018.92 1018.88 1018.80 1018.72 1018.68 1018.64 1018.60
1022.92 1022.88 1022.80 1022.80 1022.68 1022.64 1022.60 1022.52 1022.48 1022.40 1022.36 1022.28 1022.24 1022.20 1022.12 1022.04 1021.92 1021.84 1021.80 1021.72 1021.56 1021.40 1021.32 1021.20 1021.12 1021.04 1020.96 1020.92 1020.84 1020.76 1020.68 1020.64 1020.56 1020.52 1020.48 1020.44 1020.36 1020.36 1020.28 1020.24 1020.20 1020.20 1020.20 1020.16 1020.08 1020.08 1020.04 1020.04 1019.92 1019.80 1019.64 1019.52 1019.44 1019.32 1019.24 1019.24 1019.20 1019.20 1019.16 1019.04 1018.80 1018.76 1018.72 1018.64 1018.60 1018.56 1018.52 1018.48 1018.44
1022.92 1022.84 1022.80 1022.76 1022.68 1022.64 1022.60 1022.52 1022.48 1022.36 1022.32 1022.28 1022.20 1022.20 1022.16 1022.08 1022.00 1021.88 1021.80 1021.64 1021.52 1021.44 1021.36 1021.24 1021.20 1021.16 1021.08 1021.00 1020.92 1020.84 1020.80 1020.72 1020.64 1020.56 1020.52 1020.48 1020.44 1020.36 1020.36 1020.32 1020.20 1020.20 1020.12 1020.08 1020.04 1019.96 1019.92 1019.88 1019.80 1019.64 1019.52 1019.40 1019.32 1019.20 1019.08 1019.08 1019.08 1019.08 1019.00 1018.88 1018.68 1018.56 1018.52 1018.44 1018.40 1018.36 1018.36 1018.32 1018.28
1022.92 1022.84 1022.80 1022.72 1022.64 1022.64 1022.56 1022.56 1022.48 1022.40 1022.36 1022.32 1022.24 1022.20 1022.16 1022.08 1021.96 1021.88 1021.80 1021.68 1021.56 1021.48 1021.36 1021.32 1021.24 1021.16 1021.08 1021.04 1020.92 1020.88 1020.80 1020.76 1020.68 1020.60 1020.52 1020.48 1020.44 1020.36 1020.32 1020.20 1020.16 1020.08 1020.00 1019.92 1019.92 1019.84 1019.80 1019.72 1019.64 1019.52 1019.40 1019.28 1019.20 1019.08 1018.96 1018.92 1018.96 1018.92 1018.84 1018.72 1018.60 1018.44 1018.36 1018.28 1018.24 1018.20 1018.20 1018.16 1018.08
1023.04 1022.92 1022.84 1022.76 1022.72 1022.64 1022.56 1022.52 1022.48 1022.44 1022.40 1022.36 1022.28 1022.20 1022.08 1022.00 1021.92 1021.88 1021.80 1021.72 1021.52 1021.44 1021.36 1021.32 1021.20 1021.16 1021.08 1021.00 1020.92 1020.88 1020.80 1020.72 1020.64 1020.60 1020.48 1020.44 1020.36 1020.28 1020.24 1020.16 1020.08 1020.00 1019.92 1019.80 1019.80 1019.72 1019.64 1019.60 1019.52 1019.36 1019.24 1019.20 1019.12 1019.04 1018.92 1018.88 1018.88 1018.80 1018.68 1018.52 1018.40 1018.28 1018.20 1018.12 1018.08 1018.08 1018.00 1017.92 1017.88
1023.12 1023.04 1022.92 1022.88 1022.80 1022.68 1022.64 1022.56 1022.48 1022.40 1022.40 1022.36 1022.28 1022.20 1022.08 1022.00 1021.92 1021.84 1021.80 1021.68 1021.56 1021.48 1021.36 1021.28 1021.20 1021.16 1021.08 1020.96 1020.88 1020.80 1020.72 1020.64 1020.64 1020.56 1020.48 1020.36 1020.24 1020.20 1020.16 1020.08 1020.04 1019.92 1019.84 1019.72 1019.68 1019.64 1019.52 1019.48 1019.40 1019.28 1019.16 1019.08 1019.00 1018.92 1018.84 1018.80 1018.76 1018.68 1018.52 1018.36 1018.28 1018.20 1018.08 1017.96 1017.92 1017.92 1017.84 1017.72 1017.64
1023.16 1023.08 1022.96 1022.92 1022.84 1022.76 1022.68 1022.64 1022.52 1022.48 1022.44 1022.36 1022.32 1022.20 1022.12 1022.04 1021.96 1021.84 1021.76 1021.68 1021.60 1021.48 1021.36 1021.24 1021.20 1021.12 1021.08 1020.96 1020.88 1020.76 1020.64 1020.60 1020.56 1020.48 1020.44 1020.36 1020.20 1020.16 1020.08 1020.00 1019.92 1019.84 1019.76 1019.64 1019.60 1019.52 1019.44 1019.40 1019.32 1019.20 1019.08 1018.96 1018.88 1018.80 1018.72 1018.64 1018.60 1018.48 1018.36 1018.20 1018.12 1018.08 1017.92 1017.80 1017.72 1017.64 1017.60 1017.52 1017.44
1023.20 1023.08 1023.00 1022.92 1022.84 1022.80 1022.76 1022.68 1022.60 1022.52 1022.48 1022.40 1022.36 1022.24 1022.12 1022.04 1021.92 1021.88 1021.80 1021.72 1021.60 1021.48 1021.36 1021.20 1021.16 1021.08 1021.04 1020.92 1020.84 1020.76 1020.64 1020.56 1020.48 1020.44 1020.36 1020.28 1020.20 1020.08 1020.00 1019.92 1019.84 1019.72 1019.64 1019.56 1019.48 1019.40 1019.36 1019.24 1019.20 1019.12 1019.04 1018.88 1018.76 1018.64 1018.52 1018.48 1018.44 1018.36 1018.20 1018.08 1017.96 1017.84 1017.72 1017.60 1017.52 1017.40 1017.36 1017.28 1017.20
1023.16 1023.08 1023.04 1022.96 1022.92 1022.84 1022.80 1022.80 1022.68 1022.60 1022.52 1022.44 1022.36 1022.24 1022.16 1022.04 1021.92 1021.84 1021.80 1021.76 1021.64 1021.52 1021.36 1021.24 1021.12 1021.04 1020.96 1020.88 1020.80 1020.72 1020.64 1020.56 1020.48 1020.40 1020.32 1020.20 1020.12 1020.04 1019.92 1019.84 1019.72 1019.64 1019.52 1019.44 1019.36 1019.28 1019.24 1019.16 1019.08 1019.00 1018.92 1018.76 1018.64 1018.48 1018.36 1018.36 1018.28 1018.16 1018.08 1017.92 1017.80 1017.64 1017.52 1017.36 1017.24 1017.20 1017.12 1017.04 1016.92
1023.20 1023.12 1023.08 1023.00 1022.92 1022.88 1022.84 1022.80 1022.72 1022.64 1022.60 1022.48 1022.36 1022.24 1022.20 1022.08 1021.92 1021.84 1021.80 1021.68 1021.60 1021.52 1021.44 1021.32 1021.16 1021.00 1020.92 1020.84 1020.76 1020.68 1020.64 1020.52 1020.48 1020.40 1020.28 1020.12 1020.04 1019.92 1019.84 1019.76 1019.64 1019.52 1019.40 1019.32 1019.20 1019.16 1019.08 1019.04 1018.92 1018.84 1018.76 1018.64 1018.48 1018.32 1018.20 1018.12 1018.08 1017.96 1017.84 1017.72 1017.56 1017.40 1017.28 1017.12 1017.00 1016.92 1016.88 1016.80 1016.64
1023.20 1023.16 1023.12 1023.08 1023.00 1022.92 1022.88 1022.84 1022.80 1022.68 1022.64 1022.52 1022.36 1022.24 1022.20 1022.08 1021.96 1021.88 1021.80 1021.64 1021.60 1021.52 1021.40 1021.28 1021.16 1021.04 1020.92 1020.80 1020.68 1020.64 1020.56 1020.48 1020.40 1020.36 1020.20 1020.08 1019.96 1019.84 1019.72 1019.64 1019.52 1019.36 1019.28 1019.20 1019.12 1019.00 1018.92 1018.84 1018.76 1018.64 1018.56 1018.48 1018.32 1018.16 1018.08 1017.92 1017.84 1017.72 1017.60 1017.44 1017.32 1017.16 1017.04 1016.88 1016.80 1016.64 1016.56 1016.48 1016.36
1023.28 1023.20 1023.16 1023.08 1023.08 1023.00 1022.92 1022.88 1022.80 1022.72 1022.64 1022.52 1022.40 1022.32 1022.20 1022.12 1022.00 1021.92 1021.80 1021.64 1021.56 1021.52 1021.36 1021.24 1021.16 1021.04 1020.88 1020.76 1020.64 1020.56 1020.48 1020.40 1020.32 1020.20 1020.12 1020.00 1019.84 1019.76 1019.64 1019.52 1019.36 1019.24 1019.16 1019.08 1019.00 1018.88 1018.76 1018.64 1018.56 1018.48 1018.36 1018.28 1018.16 1018.00 1017.88 1017.76 1017.60 1017.48 1017.32 1017.20 1017.04 1016.92 1016.76 1016.64 1016.48 1016.36 1016.28 1016.20 1016.08
1023.36 1023.28 1023.20 1023.16 1023.12 1023.08 1023.00 1022.92 1022.84 1022.76 1022.64 1022.56 1022.48 1022.36 1022.20 1022.12 1022.04 1021.92 1021.80 1021.64 1021.60 1021.52 1021.36 1021.24 1021.12 1021.00 1020.88 1020.76 1020.64 1020.52 1020.44 1020.36 1020.20 1020.12 1019.96 1019.84 1019.72 1019.64 1019.52 1019.40 1019.24 1019.12 1019.04 1018.96 1018.84 1018.76 1018.60 1018.48 1018.36 1018.28 1018.20 1018.08 1017.92 1017.80 1017.64 1017.52 1017.36 1017.20 1017.04 1016.88 1016.76 1016.60 1016.48 1016.32 1016.20 1016.08 1016.04 1015.92 1015.80
1023.44 1023.36 1023.28 1023.20 1023.20 1023.12 1023.04 1022.92 1022.88 1022.80 1022.68 1022.56 1022.48 1022.36 1022.24 1022.12 1022.04 1021.92 1021.80 1021.64 1021.52 1021.44 1021.36 1021.20 1021.08 1020.96 1020.84 1020.72 1020.60 1020.48 1020.32 1020.20 1020.12 1020.00 1019.84 1019.68 1019.60 1019.52 1019.36 1019.24 1019.08 1019.00 1018.92 1018.80 1018.68 1018.56 1018.44 1018.32 1018.20 1018.08 1017.96 1017.84 1017.68 1017.52 1017.36 1017.20 1017.08 1016.88 1016.72 1016.60 1016.44 1016.28 1016.16 1016.04 1015.92 1015.80 1015.72 1015.60 1015.48
1023.52 1023.44 1023.36 1023.24 1023.20 1023.12 1023.04 1022.92 1022.88 1022.80 1022.68 1022.56 1022.48 1022.36 1022.24 1022.08 1022.00 1021.92 1021.80 1021.64 1021.48 1021.36 1021.28 1021.20 1021.08 1020.92 1020.76 1020.64 1020.48 1020.36 1020.20 1020.08 1019.96 1019.88 1019.72 1019.60 1019.52 1019.36 1019.20 1019.08 1018.96 1018.84 1018.76 1018.64 1018.52 1018.40 1018.24 1018.12 1018.00 1017.88 1017.72 1017.56 1017.40 1017.24 1017.08 1016.92 1016.76 1016.60 1016.44 1016.28 1016.12 1015.96 1015.80 1015.68 1015.56 1015.48 1015.36 1015.28 1015.20
1023.52 1023.44 1023.36 1023.28 1023.20 1023.16 1023.08 1022.92 1022.84 1022.76 1022.64 1022.56 1022.44 1022.36 1022.20 1022.08 1021.96 1021.84 1021.72 1021.52 1021.40 1021.32 1021.20 1021.12 1021.00 1020.84 1020.72 1020.56 1020.40 1020.28 1020.12 1019.96 1019.88 1019.76 1019.64 1019.52 1019.36 1019.20 1019.08 1018.96 1018.84 1018.72 1018.60 1018.48 1018.36 1018.20 1018.08 1017.92 1017.76 1017.64 1017.44 1017.28 1017.12 1016.92 1016.80 1016.60 1016.40 1016.28 1016.12 1015.92 1015.80 1015.64 1015.48 1015.36 1015.20 1015.12 1015.04 1014.92 1014.80
1023.52 1023.44 1023.36 1023.28 1023.20 1023.12 1023.00 1022.88 1022.80 1022.72 1022.64 1022.48 1022.36 1022.28 1022.16 1022.00 1021.92 1021.76 1021.64 1021.48 1021.36 1021.28 1021.16 1021.04 1020.92 1020.80 1020.64 1020.48 1020.36 1020.20 1020.04 1019.84 1019.76 1019.64 1019.52 1019.36 1019.20 1019.08 1018.92 1018.80 1018.76 1018.64 1018.48 1018.32 1018.16 1018.00 1017.80 1017.64 1017.48 1017.28 1017.12 1016.92 1016.80 1016.60 1016.44 1016.28 1016.12 1015.92 1015.80 1015.60 1015.40 1015.20 1015.08 1014.92 1014.84 1014.76 1014.64 1014.52 1014.44
1023.48 1023.36 1023.32 1023.24 1023.16 1023.08 1022.92 1022.84 1022.76 1022.64 1022.56 1022.44 1022.32 1022.20 1022.08 1021.92 1021.80 1021.64 1021.52 1021.40 1021.28 1021.20 1021.08 1020.92 1020.80 1020.64 1020.48 1020.36 1020.20 1020.08 1019.92 1019.80 1019.64 1019.48 1019.36 1019.24 1019.08 1018.92 1018.80 1018.72 1018.64 1018.48 1018.36 1018.12 1017.96 1017.80 1017.56 1017.36 1017.08 1016.92 1016.72 1016.52 1016.32 1016.16 1016.00 1015.80 1015.64 1015.52 1015.36 1015.16 1014.92 1014.80 1014.64 1014.48 1014.40 1014.32 1014.20 1014.08 1013.96
1023.48 1023.36 1023.28 1023.20 1023.12 1023.04 1022.92 1022.80 1022.72 1022.64 1022.48 1022.36 1022.24 1022.12 1022.00 1021.84 1021.72 1021.60 1021.48 1021.32 1021.20 1021.08 1020.96 1020.80 1020.68 1020.52 1020.36 1020.24 1020.08 1019.96 1019.84 1019.72 1019.56 1019.36 1019.20 1019.08 1018.92 1018.80 1018.68 1018.60 1018.48 1018.32 1018.12 1017.92 1017.68 1017.44 1017.20 1016.96 1016.68 1016.44 1016.20 1016.00 1015.80 1015.64 1015.52 1015.36 1015.20 1015.08 1014.88 1014.68 1014.48 1014.36 1014.20 1014.08 1013.96 1013.88 1013.80 1013.68 1013.60
1023.44 1023.36 1023.24 1023.16 1023.08 1022.96 1022.88 1022.80 1022.68 1022.60 1022.48 1022.32 1022.20 1022.08 1021.92 1021.80 1021.64 1021.52 1021.40 1021.28 1021.16 1021.00 1020.88 1020.72 1020.60 1020.40 1020.24 1020.08 1019.92 1019.80 1019.76 1019.64 1019.52 1019.36 1019.12 1018.92 1018.76 1018.64 1018.52 1018.40 1018.24 1018.08 1017.88 1017.64 1017.28 1017.00 1016.76 1016.48 1016.20 1016.00 1015.80 1015.64 1015.52 1015.36 1015.20 1015.04 1014.88 1014.72 1014.52 1014.32 1014.16 1014.00 1013.88 1013.76 1013.64 1013.60 1013.52 1013.40 1013.36
1023.40 1023.32 1023.20 1023.16 1023.04 1022.92 1022.84 1022.76 1022.64 1022.48 1022.36 1022.20 1022.08 1021.96 1021.84 1021.72 1021.56 1021.44 1021.36 1021.20 1021.08 1020.92 1020.80 1020.64 1020.48 1020.28 1020.08 1019.92 1019.80 1019.68 1019.60 1019.48 1019.36 1019.24 1019.08 1018.88 1018.64 1018.48 1018.36 1018.20 1018.04 1017.84 1017.60 1017.32 1017.00 1016.72 1016.44 1016.16 1015.92 1015.72 1015.52 1015.36 1015.20 1015.04 1014.88 1014.72 1014.56 1014.36 1014.20 1014.08 1013.92 1013.80 1013.68 1013.60 1013.52 1013.44 1013.36 1013.24 1013.12
1023.36 1023.28 1023.20 1023.08 1023.00 1022.92 1022.80 1022.64 1022.52 1022.44 1022.28 1022.16 1022.04 1021.92 1021.80 1021.64 1021.52 1021.40 1021.28 1021.16 1021.00 1020.80 1020.68 1020.52 1020.36 1020.16 1020.00 1019.88 1019.76 1019.64 1019.52 1019.36 1019.20 1019.08 1018.96 1018.80 1018.64 1018.44 1018.20 1018.00 1017.80 1017.64 1017.36 1017.08 1016.76 1016.44 1016.20 1015.92 1015.64 1015.40 1015.20 1015.00 1014.80 1014.72 1014.60 1014.44 1014.24 1014.08 1013.92 1013.80 1013.72 1013.64 1013.52 1013.44 1013.32 1013.20 1013.08 1012.92 1012.84
1023.36 1023.24 1023.16 1023.08 1023.00 1022.92 1022.76 1022.60 1022.48 1022.36 1022.24 1022.12 1021.96 1021.84 1021.72 1021.60 1021.52 1021.36 1021.20 1021.08 1020.92 1020.76 1020.60 1020.44 1020.24 1020.08 1019.92 1019.80 1019.68 1019.56 1019.40 1019.28 1019.12 1018.92 1018.80 1018.64 1018.48 1018.28 1018.08 1017.84 1017.64 1017.40 1017.16 1016.80 1016.48 1016.20 1015.96 1015.72 1015.44 1015.12 1014.84 1014.64 1014.52 1014.48 1014.36 1014.24 1014.12 1013.96 1013.84 1013.72 1013.60 1013.52 1013.36 1013.20 1013.08 1012.92 1012.80 1012.68 1012.60
1023.32 1023.20 1023.12 1023.08 1022.96 1022.80 1022.64 1022.56 1022.44 1022.32 1022.16 1022.04 1021.92 1021.80 1021.68 1021.56 1021.44 1021.32 1021.16 1021.00 1020.84 1020.72 1020.56 1020.36 1020.12 1019.96 1019.88 1019.80 1019.64 1019.48 1019.32 1019.16 1019.00 1018.80 1018.64 1018.48 1018.32 1018.08 1017.88 1017.68 1017.48 1017.20 1016.92 1016.64 1016.36 1016.08 1015.80 1015.52 1015.16 1014.84 1014.56 1014.32 1014.24 1014.20 1014.16 1014.08 1013.92 1013.80 1013.72 1013.60 1013.52 1013.36 1013.24 1013.12 1012.96 1012.80 1012.64 1012.48 1012.40
1023.24 1023.20 1023.12 1023.08 1022.92 1022.80 1022.64 1022.48 1022.36 1022.20 1022.08 1021.96 1021.84 1021.76 1021.64 1021.52 1021.36 1021.24 1021.08 1020.96 1020.80 1020.64 1020.48 1020.32 1020.12 1020.00 1019.88 1019.76 1019.56 1019.36 1019.20 1019.04 1018.84 1018.68 1018.52 1018.36 1018.12 1017.92 1017.68 1017.52 1017.28 1017.04 1016.80 1016.48 1016.20 1015.92 1015.60 1015.24 1014.92 1014.60 1014.32 1014.04 1013.96 1014.00 1013.96 1013.92 1013.80 1013.64 1013.56 1013.48 1013.36 1013.24 1013.16 1013.04 1012.84 1012.72 1012.56 1012.40 1012.32
1023.24 1023.20 1023.12 1023.04 1022.88 1022.76 1022.60 1022.40 1022.24 1022.16 1022.04 1021.92 1021.80 1021.72 1021.64 1021.52 1021.36 1021.20 1021.08 1020.96 1020.80 1020.52 1020.36 1020.20 1020.08 1019.96 1019.80 1019.60 1019.48 1019.32 1019.08 1018.88 1018.68 1018.52 1018.40 1018.20 1017.96 1017.72 1017.52 1017.32 1017.16 1016.92 1016.64 1016.32 1016.00 1015.64 1015.36 1015.00 1014.68 1014.36 1014.08 1013.84 1013.80 1013.80 1013.80 1013.72 1013.64 1013.52 1013.44 1013.32 1013.20 1013.08 1013.00 1012.88 1012.76 1012.60 1012.48 1012.36 1012.24
1023.20 1023.16 1023.08 1022.96 1022.84 1022.68 1022.48 1022.36 1022.20 1022.08 1022.00 1021.92 1021.80 1021.68 1021.56 1021.48 1021.32 1021.20 1021.04 1020.84 1020.64 1020.44 1020.28 1020.12 1020.00 1019.84 1019.64 1019.44 1019.32 1019.12 1018.92 1018.76 1018.56 1018.36 1018.20 1018.04 1017.84 1017.64 1017.44 1017.20 1016.96 1016.76 1016.48 1016.08 1015.80 1015.48 1015.16 1014.80 1014.48 1014.20 1013.92 1013.64 1013.60 1013.60 1013.60 1013.52 1013.44 1013.36 1013.28 1013.20 1013.08 1012.96 1012.84 1012.72 1012.60 1012.44 1012.32 1012.16 1012.08
1023.16 1023.08 1023.00 1022.88 1022.76 1022.60 1022.44 1022.28 1022.16 1022.08 1021.92 1021.84 1021.76 1021.64 1021.52 1021.36 1021.20 1021.08 1020.92 1020.76 1020.56 1020.40 1020.24 1020.08 1019.92 1019.80 1019.64 1019.40 1019.20 1019.00 1018.80 1018.60 1018.40 1018.20 1018.04 1017.88 1017.76 1017.56 1017.28 1017.04 1016.80 1016.56 1016.24 1015.92 1015.60 1015.28 1014.92 1014.64 1014.28 1014.00 1013.76 1013.52 1013.48 1013.48 1013.44 1013.36 1013.32 1013.24 1013.16 1013.04 1012.92 1012.80 1012.64 1012.52 1012.36 1012.24 1012.12 1012.04 1011.92
1023.08 1023.00 1022.92 1022.80 1022.68 1022.52 1022.36 1022.24 1022.12 1022.04 1021.92 1021.80 1021.68 1021.56 1021.48 1021.36 1021.20 1021.00 1020.80 1020.60 1020.40 1020.24 1020.12 1020.00 1019.92 1019.76 1019.56 1019.40 1019.20 1019.00 1018.76 1018.48 1018.24 1018.08 1017.92 1017.80 1017.64 1017.40 1017.16 1016.92 1016.64 1016.36 1016.08 1015.80 1015.44 1015.08 1014.76 1014.44 1014.12 1013.84 1013.60 1013.40 1013.36 1013.36 1013.36 1013.28 1013.20 1013.08 1012.96 1012.80 1012.68 1012.56 1012.44 1012.32 1012.20 1012.08 1011.96 1011.92 1011.80
1023.04 1022.96 1022.88 1022.76 1022.64 1022.48 1022.36 1022.20 1022.08 1022.00 1021.92 1021.80 1021.64 1021.52 1021.36 1021.28 1021.16 1020.96 1020.76 1020.48 1020.28 1020.12 1020.00 1019.92 1019.80 1019.64 1019.44 1019.20 1019.08 1018.92 1018.64 1018.36 1018.16 1017.96 1017.80 1017.64 1017.48 1017.20 1016.96 1016.68 1016.48 1016.20 1015.92 1015.60 1015.24 1014.92 1014.60 1014.32 1014.04 1013.76 1013.52 1013.36 1013.32 1013.32 1013.24 1013.16 1013.04 1012.92 1012.80 1012.64 1012.48 1012.32 1012.20 1012.08 1011.92 1011.84 1011.80 1011.68 1011.60
1023.00 1022.92 1022.84 1022.68 1022.56 1022.40 1022.28 1022.20 1022.08 1022.00 1021.88 1021.80 1021.64 1021.48 1021.32 1021.16 1021.04 1020.88 1020.64 1020.36 1020.20 1020.04 1019.92 1019.80 1019.64 1019.48 1019.28 1019.08 1018.92 1018.72 1018.48 1018.32 1018.08 1017.88 1017.64 1017.48 1017.32 1017.08 1016.84 1016.56 1016.28 1016.00 1015.72 1015.40 1015.08 1014.80 1014.48 1014.20 1013.96 1013.64 1013.44 1013.32 1013.24 1013.20 1013.12 1013.00 1012.88 1012.72 1012.56 1012.44 1012.24 1012.08 1011.96 1011.84 1011.76 1011.64 1011.56 1011.48 1011.36
1022.92 1022.88 1022.80 1022.64 1022.52 1022.36 1022.24 1022.16 1022.08 1021.96 1021.84 1021.72 1021.56 1021.40 1021.28 1021.08 1020.92 1020.72 1020.52 1020.28 1020.12 1019.96 1019.80 1019.64 1019.52 1019.36 1019.20 1019.00 1018.80 1018.56 1018.36 1018.20 1018.00 1017.80 1017.52 1017.32 1017.16 1016.96 1016.72 1016.44 1016.12 1015.84 1015.56 1015.20 1014.92 1014.64 1014.36 1014.12 1013.84 1013.52 1013.32 1013.20 1013.16 1013.08 1012.96 1012.84 1012.72 1012.52 1012.36 1012.20 1012.00 1011.88 1011.80 1011.68 1011.60 1011.48 1011.36 1011.28 1011.20
1022.80 1022.80 1022.72 1022.64 1022.48 1022.36 1022.24 1022.12 1022.04 1021.92 1021.80 1021.64 1021.52 1021.36 1021.16 1021.00 1020.84 1020.64 1020.40 1020.20 1020.08 1019.92 1019.76 1019.60 1019.44 1019.28 1019.08 1018.92 1018.64 1018.40 1018.20 1018.04 1017.88 1017.68 1017.44 1017.20 1017.04 1016.84 1016.60 1016.24 1015.92 1015.64 1015.40 1015.12 1014.84 1014.56 1014.32 1014.04 1013.72 1013.40 1013.20 1013.16 1013.04 1012.92 1012.80 1012.68 1012.52 1012.36 1012.20 1012.00 1011.80 1011.68 1011.60 1011.52 1011.40 1011.32 1011.20 1011.08 1010.92
1022.76 1022.68 1022.64 1022.56 1022.48 1022.36 1022.20 1022.08 1022.00 1021.88 1021.72 1021.56 1021.36 1021.20 1021.04 1020.88 1020.68 1020.48 1020.32 1020.12 1020.08 1019.96 1019.80 1019.60 1019.36 1019.20 1018.96 1018.80 1018.48 1018.24 1018.04 1017.84 1017.68 1017.52 1017.32 1017.08 1016.88 1016.60 1016.32 1016.00 1015.76 1015.52 1015.28 1015.04 1014.72 1014.48 1014.20 1013.92 1013.60 1013.24 1013.08 1012.96 1012.88 1012.80 1012.64 1012.52 1012.36 1012.16 1011.96 1011.80 1011.64 1011.52 1011.48 1011.36 1011.24 1011.16 1011.04 1010.92 1010.68
1022.68 1022.64 1022.56 1022.48 1022.40 1022.32 1022.20 1022.08 1021.92 1021.80 1021.64 1021.52 1021.32 1021.12 1020.92 1020.76 1020.52 1020.36 1020.20 1020.08 1020.00 1019.92 1019.76 1019.52 1019.32 1019.08 1018.88 1018.64 1018.44 1018.20 1017.92 1017.68 1017.52 1017.32 1017.12 1016.92 1016.64 1016.36 1016.04 1015.80 1015.64 1015.40 1015.20 1014.92 1014.64 1014.36 1014.08 1013.76 1013.44 1013.16 1012.92 1012.80 1012.72 1012.64 1012.52 1012.36 1012.20 1011.96 1011.76 1011.60 1011.48 1011.40 1011.36 1011.24 1011.12 1011.00 1010.88 1010.72 1010.52
1022.60 1022.52 1022.48 1022.36 1022.32 1022.20 1022.12 1021.96 1021.84 1021.64 1021.52 1021.40 1021.24 1021.08 1020.80 1020.60 1020.44 1020.28 1020.12 1020.00 1019.88 1019.80 1019.64 1019.40 1019.20 1019.00 1018.80 1018.56 1018.36 1018.12 1017.88 1017.60 1017.36 1017.12 1016.92 1016.68 1016.44 1016.16 1015.92 1015.72 1015.52 1015.32 1015.08 1014.84 1014.56 1014.28 1013.92 1013.60 1013.32 1013.04 1012.80 1012.64 1012.52 1012.48 1012.40 1012.24 1012.04 1011.80 1011.64 1011.44 1011.36 1011.32 1011.24 1011.16 1011.00 1010.84 1010.68 1010.52 1010.40
Wind_Speed
1 1 1 1 1 1 2 2 2 2 1 1 2 2 2 2 3 3 3 3 3 4 4 4 4 5 5 6 5 5 4 4 4 4 4 4 3 3 2 2 1 0 1 1 1 1 1 1 1 1 2 2 2 2 3 3 3 3 3 4 4 4 4 5 6 6 6 6 5
2 2 2 2 2 2 2 2 3 2 2 2 2 2 2 2 3 3 4 4 3 3 4 4 4 5 6 6 5 4 4 4 3 3 3 3 2 2 1 1 1 1 1 1 1 1 1 1 1 1 2 2 2 3 3 3 3 3 3 4 4 4 4 4 6 7 7 6 5
3 3 3 3 4 3 3 4 4 4 3 3 2 2 2 2 3 3 4 4 3 3 3 4 5 5 6 6 5 4 3 3 3 3 3 3 2 2 2 1 1 1 1 1 1 1 1 1 1 2 2 2 3 3 3 3 3 3 4 5 4 4 4 4 5 5 5 5 5
4 4 4 4 4 4 3 3 4 4 4 4 3 2 2 2 2 3 3 3 3 3 3 4 4 5 5 5 5 4 3 3 3 3 3 4 3 3 3 2 3 3 2 2 2 1 1 1 2 2 3 3 3 4 4 3 3 3 4 4 4 4 4 5 5 4 4 4 5
5 4 3 3 3 3 2 2 3 4 4 3 3 3 3 2 2 2 3 4 4 4 4 4 4 4 4 5 5 5 4 4 4 4 4 4 4 4 4 4 4 3 3 2 2 2 2 2 2 3 3 3 3 4 4 4 4 3 3 3 3 4 4 4 4 4 4 4 4
4 4 3 3 3 3 2 2 3 3 3 3 3 4 4 4 4 4 4 4 4 4 4 4 4 4 5 5 5 5 5 4 4 4 4 5 5 5 5 4 4 3 3 3 3 3 3 3 3 3 3 3 4 4 4 4 4 4 4 4 4 4 4 4 4 4 4 5 5
3 4 4 4 3 3 3 3 3 3 3 2 4 5 5 5 5 5 5 4 4 4 4 4 4 5 5 5 5 5 5 5 4 4 4 4 4 4 4 4 4 3 3 3 3 3 3 3 3 3 3 3 4 4 4 4 4 4 4 5 5 4 4 4 4 4 4 6 7
3 4 4 4 4 4 4 4 3 3 3 3 4 5 5 5 5 5 5 4 4 4 4 4 3 4 4 4 4 4 4 5 4 4 3 3 4 4 4 4 4 4 4 3 3 3 3 3 3 3 3 3 3 4 4 4 4 4 5 6 5 5 4 4 4 4 5 7 8
5 5 5 4 4 4 4 4 3 3 3 4 4 4 4 4 4 4 4 4 3 3 3 3 3 3 3 3 3 3 3 3 4 4 3 3 3 4 4 3 4 4 4 3 3 3 3 3 3 3 3 3 4 4 5 4 5 5 6 6 6 5 5 5 5 5 6 7 8
5 5 5 5 5 5 5 4 3 3 3 4 4 4 4 4 4 3 3 3 3 3 3 3 3 3 3 3 3 3 3 3 3 3 3 3 4 4 4 4 4 5 5 4 4 3 3 3 4 4 4 4 5 6 6 6 6 7 7 6 6 6 6 6 6 6 6 7 8
5 5 5 5 5 5 5 4 4 4 4 4 4 4 4 4 4 3 3 3 3 3 3 3 3 3 3 4 4 3 3 3 3 3 4 4 4 4 4 4 5 5 6 6 4 3 3 3 4 5 6 5 5 6 6 6 7 7 8 6 6 7 7 7 7 6 6 7 9
4 4 4 4 4 4 4 4 4 4 4 4 4 5 4 4 4 4 4 4 4 4 4 3 3 3 3 4 4 4 4 3 3 3 4 4 5 5 5 5 5 6 6 6 4 3 3 4 5 6 7 7 6 6 6 7 7 8 8 7 7 8 8 9 8 7 7 7 8
4 4 4 5 4 4 4 4 4 4 4 5 5 5 5 5 4 4 4 4 5 5 4 4 3 3 3 4 4 4 4 4 4 4 4 5 5 5 5 5 6 6 6 6 4 4 4 5 6 7 8 8 7 7 7 7 7 8 9 9 9 9 9 10 9 8 8 8 9
4 4 4 5 5 4 4 4 4 4 4 5 5 5 5 5 5 4 4 4 5 5 5 5 4 4 4 4 4 4 4 4 4 4 5 5 5 5 6 6 6 6 6 6 5 5 5 6 7 7 8 9 9 8 8 7 8 8 9 9 10 10 10 10 10 9 9 9 10
4 4 5 5 5 4 4 4 4 4 4 5 5 5 5 5 5 5 5 5 5 5 5 5 5 5 5 4 4 4 4 4 4 5 5 6 6 6 6 6 7 6 6 6 5 5 6 7 7 8 8 9 9 9 9 8 8 8 9 10 10 11 11 11 10 10 10 10 10
5 5 5 5 5 5 5 4 4 4 4 5 5 5 5 5 5 5 6 6 5 5 5 6 6 6 5 5 5 4 4 4 4 5 6 6 7 7 7 7 7 7 7 7 7 6 6 7 7 7 8 9 9 9 9 9 9 9 10 10 11 11 11 11 11 11 11 11 11
5 5 5 5 5 5 5 5 4 4 5 6 6 6 6 5 5 6 6 6 6 5 6 7 6 6 6 6 5 4 4 4 5 5 6 7 7 7 7 7 8 8 7 7 7 8 8 7 7 7 8 8 9 9 10 10 10 10 10 11 11 11 12 12 12 11 11 11 12
4 5 5 5 5 5 5 5 5 5 6 6 6 6 6 6 6 6 6 6 5 6 7 7 6 6 6 7 6 5 4 5 6 7 7 7 7 8 8 8 8 8 7 7 8 8 8 8 8 8 8 8 9 9 10 10 10 11 11 11 11 11 12 12 12 11 11 11 12
4 4 4 5 5 5 5 6 6 6 6 6 6 6 6 6 6 6 6 6 6 6 7 7 7 6 6 7 7 6 5 6 7 7 8 8 8 8 8 8 8 8 8 7 8 8 8 8 9 9 9 9 9 10 10 10 10 11 11 11 12 12 12 12 12 11 11 11 12
4 4 4 4 4 5 5 5 5 5 6 6 6 7 7 7 6 6 7 7 7 6 6 7 7 7 7 7 7 7 6 5 7 8 8 8 8 8 8 8 8 8 8 7 8 8 8 9 9 9 9 10 10 11 11 11 11 11 11 11 11 11 12 12 12 12 12 12 12
3 3 3 3 4 4 4 5 5 5 6 6 6 7 7 7 7 7 7 7 7 6 6 7 7 7 8 8 8 8 7 6 6 7 8 8 8 8 8 8 8 8 8 7 8 8 9 9 9 10 10 10 11 11 11 11 11 11 11 11 11 12 12 12 12 12 12 13 13
3 3 3 3 4 4 4 5 5 5 6 6 6 6 6 6 7 7 7 6 6 6 6 6 7 7 8 8 8 8 8 6 7 7 7 7 8 8 8 7 7 8 8 8 8 9 9 10 10 10 10 10 11 11 11 11 11 12 12 12 12 12 13 13 13 13 13 13 14
4 4 4 4 4 5 5 5 5 6 6 6 6 6 6 7 7 7 6 6 6 6 6 6 6 7 8 8 8 8 8 7 7 7 7 7 7 8 8 7 7 8 8 8 8 8 9 9 10 10 10 10 11 11 12 12 12 12 12 12 13 13 13 13 13 13 13 13 13
4 4 4 4 4 5 5 5 5 6 6 6 6 7 7 7 7 7 7 7 7 7 7 6 6 7 7 8 7 7 7 7 8 8 8 8 8 8 8 7 7 7 8 7 9 10 10 10 9 10 10 10 10 11 11 11 12 12 13 14 14 14 13 13 13 13 13 13 12
4 4 4 4 4 5 5 5 6 6 6 6 6 6 7 7 7 7 7 7 7 7 7 7 7 7 7 7 7 7 7 7 8 9 9 10 9 9 8 7 7 7 7 8 13 17 17 16 13 12 10 9 9 10 10 11 12 13 13 14 14 14 13 13 12 12 12 12 11
4 4 4 4 5 5 5 6 6 6 6 6 6 6 6 6 6 6 7 7 8 8 7 7 7 7 7 6 7 7 7 7 7 8 9 10 10 10 9 8 7 7 8 11 16 19 21 21 20 17 14 10 10 9 10 10 11 12 13 13 12 12 11 10 10 10 10 10 10
4 4 4 4 5 5 6 6 6 6 6 6 6 7 7 6 6 6 7 7 8 7 7 7 6 7 7 6 7 7 8 8 8 8 9 9 10 10 10 9 8 8 9 14 19 21 22 22 22 21 19 14 11 9 9 9 10 11 11 11 10 10 10 10 10 10 9 9 9
4 4 4 5 5 6 6 6 6 6 7 7 7 6 6 7 7 7 7 7 7 7 7 6 6 6 5 5 6 7 8 9 8 8 9 9 10 10 10 9 8 10 13 18 21 22 22 22 22 22 21 17 11 9 8 8 9 8 8 8 8 8 9 9 8 8 8 8 7
4 4 4 5 6 6 7 6 7 7 7 7 6 6 7 7 7 7 7 8 8 7 6 6 6 5 5 6 7 8 8 9 9 8 9 9 10 10 10 10 10 12 16 21 22 22 22 22 22 22 22 20 12 8 6 7 7 7 6 6 6 7 7 8 8 8 8 7 7
4 4 4 6 6 7 7 7 7 7 6 6 6 6 7 7 7 8 8 8 8 7 7 6 6 6 7 8 8 8 9 9 9 9 9 10 10 11 11 11 11 13 16 21 22 22 21 21 21 22 22 22 16 10 7 6 6 6 5 5 6 7 8 9 9 9 9 8 8
4 4 5 6 6 7 7 7 7 7 6 6 6 7 7 7 7 7 7 7 7 8 8 7 7 7 8 8 7 8 9 10 9 9 9 9 11 11 12 12 12 13 16 20 21 21 21 21 22 22 22 23 17 11 7 6 6 5 5 6 7 8 9 9 10 10 10 10 10
4 5 5 6 7 7 7 7 7 6 6 6 7 7 7 7 7 7 6 6 7 7 7 7 7 8 9 9 8 9 10 10 10 10 10 10 10 11 12 12 12 13 16 20 21 21 21 22 22 22 23 23 18 12 8 6 5 5 6 7 8 9 9 9 9 10 11 11 10
5 5 5 6 7 7 7 7 7 6 6 7 7 7 7 7 7 7 7 7 6 6 6 6 8 8 9 10 10 10 11 11 11 11 11 11 11 11 12 12 11 13 16 20 21 21 22 22 22 23 23 24 17 12 8 6 5 5 6 7 8 9 10 10 10 10 10 10 9
5 5 6 6 7 7 7 7 7 7 7 7 7 7 7 7 7 7 7 7 6 6 5 6 7 7 7 8 9 10 11 11 11 11 11 11 11 11 12 11 10 12 17 20 21 22 22 22 23 23 23 23 15 10 7 7 6 7 7 9 9 9 9 10 10 10 9 8 8
5 6 6 7 7 7 7 7 7 7 7 7 7 7 7 6 6 7 7 8 8 7 6 6 6 6 7 7 7 8 10 11 11 11 11 11 11 11 12 12 11 14 18 21 21 22 22 22 23 23 23 19 12 8 6 7 7 8 9 9 9 10 10 9 9 8 8 8 8
5 6 6 7 7 7 7 7 7 7 7 7 7 7 7 7 6 6 7 8 8 7 7 7 7 7 7 8 8 9 10 11 11 11 11 11 11 11 12 12 13 15 19 21 21 21 22 22 23 23 22 16 10 7 6 7 7 8 9 10 10 10 9 9 8 8 7 7 8
5 5 6 7 7 7 7 7 7 7 7 7 7 7 7 7 6 6 6 7 7 7 8 8 8 8 8 8 9 9 9 10 11 11 12 12 11 11 12 12 13 14 17 20 21 22 22 22 23 23 20 13 9 7 7 7 7 7 9 10 10 9 8 7 7 7 7 8 8
5 5 6 6 7 7 7 7 7 7 7 7 6 6 6 6 6 6 7 7 6 7 8 8 8 9 9 10 10 11 11 10 11 11 11 12 11 11 12 12 12 13 15 18 21 22 22 22 23 22 19 13 10 8 7 7 7 7 8 9 8 8 7 6 6 6 7 8 11
6 6 6 6 6 7 7 7 7 7 7 7 6 6 6 6 5 6 7 7 6 6 7 8 9 9 10 11 11 11 11 11 11 11 11 11 11 12 13 13 11 12 14 18 20 22 22 22 23 23 20 14 10 8 7 7 7 8 9 8 7 7 6 6 5 5 6 8 12
6 5 5 5 6 6 7 7 7 6 6 6 6 6 6 6 6 6 7 7 6 6 7 7 9 10 10 12 11 11 11 12 11 11 11 11 12 14 15 13 11 12 14 17 20 21 22 22 23 23 21 14 9 7 6 6 7 8 9 8 7 6 5 6 5 5 5 7 10
5 5 5 5 6 6 6 7 7 6 5 5 5 6 6 6 6 6 6 6 6 6 6 7 9 10 11 11 10 10 11 12 12 11 11 12 13 14 14 12 11 11 12 15 18 20 22 22 23 23 21 15 10 7 6 6 7 9 9 9 7 5 5 5 5 5 5 6 7
Wind_Direction
360 346 333 322 321 313 304 294 293 293 293 297 305 309 311 316 317 318 320 324 324 321 318 316 314 315 318 323 326 326 325 326 330 329 329 332 342 354 3 9 6 310 257 239 216 201 188 180 188 207 222 223 230 235 234 226 223 222 224 226 231 233 233 232 235 236 236 235 234
12 4 354 349 351 345 336 332 328 326 323 310 307 304 303 304 308 313 317 320 318 316 314 314 317 319 321 323 328 330 330 327 327 328 329 329 329 332 333 319 280 252 245 243 236 223 200 179 193 218 232 233 234 238 239 228 216 220 227 231 231 231 231 232 235 235 234 236 235
12 8 6 6 4 1 354 344 336 331 327 321 316 307 298 290 298 305 310 311 312 316 320 321 322 322 323 324 328 333 334 327 325 326 326 322 322 323 326 320 311 305 302 298 299 288 260 215 221 233 240 241 239 242 244 235 217 219 227 233 230 229 231 238 236 233 233 236 232
10 10 8 6 2 356 346 333 326 323 321 320 317 310 300 289 293 300 307 312 322 328 328 323 321 322 323 326 329 332 335 333 332 331 330 329 331 335 337 339 336 333 330 328 314 294 265 235 233 238 241 242 242 243 244 241 226 224 227 231 229 230 235 244 241 239 239 243 234
0 2 2 358 350 339 324 314 315 315 315 316 318 321 321 321 321 323 328 334 335 331 326 321 320 322 326 331 334 337 339 342 345 345 341 338 338 338 340 342 336 328 321 313 295 273 253 237 236 238 238 238 239 240 240 239 236 237 240 243 240 240 243 251 251 250 250 252 247
349 348 349 349 342 333 324 315 312 308 308 312 330 338 341 341 342 343 342 337 329 324 324 327 330 333 337 341 343 344 346 348 351 352 348 342 337 336 335 332 323 314 303 290 274 256 242 234 244 244 240 238 244 245 243 238 241 245 250 256 253 250 251 253 254 254 254 256 256
343 346 348 346 344 341 337 331 323 317 318 329 346 348 345 339 340 338 335 327 328 332 336 341 343 344 344 346 347 348 347 346 346 346 344 336 330 326 321 313 305 296 284 273 265 252 240 231 249 260 262 260 262 258 252 239 241 247 254 260 259 256 253 252 253 254 255 256 256
348 351 350 345 344 343 341 336 334 335 341 351 354 348 340 333 334 334 335 338 341 340 339 343 343 341 341 345 346 344 342 340 337 334 330 322 316 309 302 296 292 285 276 266 264 260 254 243 256 267 274 276 276 272 265 253 251 253 258 263 266 265 260 257 257 255 254 255 256
353 350 347 345 346 345 342 337 337 344 351 354 350 344 337 336 338 341 342 342 332 328 328 338 335 334 335 342 340 335 331 328 322 317 311 306 303 299 296 293 293 291 286 277 274 272 271 268 270 271 272 274 276 276 274 269 267 265 264 265 268 267 263 258 256 254 254 254 256
350 347 345 345 344 342 340 338 344 352 358 355 348 342 340 343 346 343 334 319 314 319 329 333 332 334 335 335 329 321 312 304 302 301 300 297 296 295 296 296 296 296 295 292 288 285 283 282 281 277 275 272 273 275 275 272 269 267 266 268 269 269 267 263 258 256 255 255 256
345 343 343 344 340 339 342 349 354 359 1 357 348 343 341 344 341 331 320 312 320 327 329 324 328 330 327 321 314 308 300 292 291 293 295 295 294 293 292 292 292 292 292 292 292 291 290 287 284 282 280 277 274 274 274 271 267 265 266 268 268 270 270 269 264 260 257 256 257
342 341 342 343 341 344 351 359 359 0 359 354 347 341 338 334 327 323 322 326 330 326 321 316 318 315 311 306 302 301 299 294 291 291 292 292 292 291 291 290 288 288 288 288 288 287 286 283 282 283 283 283 280 278 275 272 269 268 269 270 270 270 270 270 267 264 260 258 259
343 346 348 349 350 356 2 4 0 357 353 348 341 335 330 324 321 323 327 329 324 320 315 314 310 305 300 296 295 295 296 294 293 291 289 288 289 290 290 289 288 287 287 286 284 282 281 279 279 280 282 284 282 279 276 273 272 271 272 273 272 271 270 269 267 266 264 261 262
353 356 356 355 358 3 6 4 357 351 345 339 333 328 325 321 321 324 326 323 317 313 311 311 309 303 297 293 292 290 290 290 291 290 288 286 286 286 287 287 286 286 285 284 282 279 277 277 277 277 279 280 280 279 277 273 271 270 270 271 271 271 270 270 269 268 266 265 264
2 2 0 360 2 4 4 359 350 342 337 332 325 324 323 322 322 323 323 318 311 309 309 311 309 305 301 296 292 290 287 286 286 287 287 287 286 285 285 285 285 285 284 284 282 279 275 273 274 275 276 277 279 279 278 275 272 269 268 268 269 270 270 271 270 269 268 266 266
4 1 359 1 2 0 356 349 340 334 329 325 322 322 322 321 320 321 321 317 313 311 310 309 307 306 305 302 297 293 290 286 283 283 284 285 286 285 285 285 285 285 284 284 284 282 278 273 272 272 273 275 277 278 278 276 273 271 268 267 267 267 268 269 269 268 266 265 265
1 357 356 359 357 353 346 337 331 327 323 320 320 320 320 318 318 319 318 316 313 312 311 307 306 306 307 305 302 298 294 290 285 283 282 282 283 284 284 284 283 283 282 282 283 283 282 279 277 275 273 274 275 276 277 275 274 271 269 267 266 266 266 267 267 266 265 265 264
354 350 349 352 349 343 335 328 324 321 318 316 316 316 315 314 314 314 313 312 311 310 309 307 305 305 304 303 301 298 294 290 286 283 280 280 280 281 282 282 281 281 280 280 279 280 281 281 281 280 278 276 275 275 274 273 272 270 269 267 266 265 265 264 264 263 263 262 262
346 343 343 342 336 330 325 320 317 315 312 311 311 311 311 309 309 309 310 310 309 308 307 306 305 304 301 299 298 296 293 287 285 283 281 280 280 281 281 281 281 281 280 279 278 278 279 281 281 281 280 279 277 275 274 272 270 269 268 267 266 265 264 263 262 261 260 259 260
336 334 331 327 323 319 315 313 310 309 307 307 308 308 307 306 306 307 308 307 307 306 305 303 304 303 302 300 299 297 293 288 285 284 283 283 283 282 282 282 283 282 281 280 279 279 279 280 281 280 279 277 276 275 273 271 269 267 266 265 265 263 262 261 260 260 259 258 258
324 319 314 310 309 308 305 303 302 303 303 303 304 303 303 304 305 305 304 302 304 305 304 302 302 302 302 301 300 298 294 291 288 285 284 285 284 283 282 283 284 285 285 283 282 280 280 279 278 277 275 274 272 271 270 269 268 266 264 263 262 261 260 259 259 258 258 257 257
307 303 301 300 298 298 298 298 299 301 301 301 300 301 302 304 304 303 302 302 304 306 305 303 301 300 300 299 297 295 294 293 290 287 284 284 285 285 285 286 287 287 287 285 283 281 279 277 274 271 269 268 266 264 264 263 264 263 262 261 260 259 258 257 257 257 257 257 256
294 294 294 293 293 296 298 300 301 302 303 303 304 304 305 306 304 304 304 306 307 307 306 304 302 300 298 295 293 292 293 294 293 291 289 286 287 288 290 290 289 287 285 284 281 278 276 274 271 267 264 262 262 261 260 260 262 263 263 262 261 260 259 258 257 257 257 256 255
290 292 292 292 295 299 301 304 307 308 308 306 306 306 306 307 307 308 309 310 309 308 307 306 304 301 298 294 291 290 290 293 296 297 297 296 294 294 294 294 290 285 282 281 282 282 281 279 277 274 272 271 271 270 269 268 269 269 269 269 268 266 265 263 263 263 262 261 260
289 291 294 296 300 303 305 308 309 308 306 304 304 305 307 308 310 311 313 313 311 310 308 306 305 302 300 297 295 293 293 293 296 298 300 302 300 299 298 297 292 288 285 284 288 290 291 292 293 292 289 286 282 279 276 273 271 270 270 270 270 271 271 271 271 271 270 269 266
291 295 298 300 304 307 308 307 305 302 301 301 305 307 309 310 311 312 313 313 311 310 309 308 306 305 305 303 303 303 302 300 299 300 300 302 302 302 301 298 295 292 289 289 293 295 296 298 298 298 295 290 283 278 275 273 270 269 269 270 274 277 278 280 280 278 274 270 265
297 300 302 304 309 309 306 301 301 301 302 305 308 309 310 311 313 314 314 312 311 310 309 308 304 306 307 306 307 306 305 305 304 302 300 299 300 300 299 297 295 292 291 293 295 297 299 300 300 299 297 293 288 284 282 281 278 276 275 277 281 282 281 280 277 274 271 266 262
297 301 306 311 311 307 303 301 303 304 306 307 308 308 310 312 314 314 313 312 312 313 313 310 307 307 309 309 307 306 304 304 304 303 301 299 298 297 296 295 294 293 294 297 299 300 301 301 300 299 298 297 294 292 290 289 288 288 288 290 287 284 281 278 275 272 269 266 266
295 302 308 311 308 305 304 305 306 306 305 306 307 310 313 315 315 314 314 314 316 316 315 312 312 312 312 310 308 307 306 304 304 304 303 302 300 298 296 295 294 295 297 300 301 302 302 301 301 300 300 300 300 299 298 296 295 296 296 297 293 291 289 288 286 283 279 276 279
297 302 305 306 304 304 305 305 304 304 305 307 311 314 316 317 317 317 317 317 315 312 310 308 310 310 309 307 307 308 308 307 306 305 304 303 302 300 299 299 298 298 299 301 302 302 302 301 301 301 301 302 303 303 302 299 296 296 296 296 297 298 298 297 294 291 288 287 287
299 301 302 303 304 304 303 303 303 305 308 312 315 317 318 318 316 315 313 312 309 307 306 306 306 305 305 305 307 307 307 307 307 306 304 301 302 302 301 301 299 297 298 301 302 303 303 303 303 303 303 305 307 307 305 300 297 297 298 299 300 299 298 297 294 291 288 286 284
298 301 303 305 304 304 303 305 307 309 312 315 316 317 316 314 311 308 306 305 304 306 307 309 311 311 311 312 312 310 309 308 307 306 305 304 303 303 301 300 298 297 298 301 303 305 305 306 305 306 306 308 309 310 310 305 302 301 300 298 297 295 293 290 287 284 282 280 280
301 303 305 305 304 304 305 307 310 313 316 317 316 315 313 311 309 309 308 307 306 306 308 312 315 315 315 314 313 311 310 308 306 306 305 305 304 301 300 300 297 298 300 304 306 307 308 308 308 309 310 312 313 315 316 313 308 303 299 296 293 289 286 283 281 280 279 280 285
305 308 308 307 306 306 308 310 313 316 318 318 316 314 312 311 312 312 312 311 310 309 309 311 311 310 308 307 307 307 307 307 307 306 306 305 303 301 300 300 298 300 303 305 308 309 310 311 312 312 313 314 315 316 317 311 305 299 295 292 289 286 283 280 279 279 281 283 286
307 310 310 308 308 309 310 313 316 318 320 319 316 314 312 311 310 309 309 310 312 312 312 311 309 306 305 304 303 303 304 306 306 306 305 305 304 303 301 300 298 300 303 307 309 311 313 314 314 314 315 316 316 315 311 305 299 294 291 288 287 285 283 280 280 281 281 280 278
305 308 308 308 309 310 312 314 317 319 319 317 315 314 313 312 309 305 305 309 313 315 314 313 312 311 310 309 307 306 306 305 305 305 306 306 305 304 302 300 298 300 303 307 311 313 315 316 315 315 315 315 314 311 306 301 295 290 287 285 284 284 283 281 281 280 279 277 275
303 305 306 307 308 310 312 314 317 317 316 314 312 311 311 310 307 305 307 314 317 317 316 315 315 313 312 311 309 307 306 304 305 305 305 306 305 303 301 299 297 299 303 308 312 314 316 316 315 315 314 314 312 309 305 299 293 288 285 283 281 281 281 280 278 276 274 273 275
301 303 304 304 306 308 310 313 314 314 312 310 308 308 307 306 306 308 313 321 319 317 316 315 314 312 310 310 308 306 306 305 305 305 304 304 302 300 299 298 297 299 303 309 312 315 316 316 315 314 314 313 312 310 306 301 293 288 285 283 281 280 280 279 275 273 272 271 280
300 301 301 300 302 304 307 309 309 307 306 305 306 306 307 306 307 311 315 320 315 312 311 311 309 308 309 311 310 309 308 306 305 304 303 301 299 300 302 302 301 302 305 309 312 315 316 315 314 315 315 314 313 311 307 301 294 289 286 283 283 283 282 279 275 273 272 271 284
297 297 297 296 297 300 302 304 302 301 300 302 304 305 306 308 309 312 314 315 311 308 307 306 305 306 309 313 312 310 308 307 306 304 303 301 300 304 307 308 305 304 305 308 311 313 314 315 315 316 317 315 315 312 307 301 296 292 290 288 287 286 284 281 279 278 277 276 288
295 296 296 296 296 297 298 299 298 297 297 299 299 301 305 310 310 312 313 313 310 308 307 307 307 308 310 313 312 310 307 306 306 305 304 304 304 307 309 309 305 302 302 305 309 312 315 316 317 318 318 316 316 315 311 304 301 299 297 295 291 286 283 283 285 287 289 291 294